Flag for Finland Weather past 2 weeks in Ivalo, Finland

Now
54 °F

Sunny.


Feels Like: 50 °F
Forecast: 38 / 55 °F
Wind: 12 mph from Northeast

Location: Ivalo

Current Time: May 26, 2015 at 8:05:08 PM

Latest Report: May 26, 2015 at 7:20 PM


Visibility: 10 mi

Pressure: 29.86 "Hg

Humidity: 44%

Dew point: 32 °F

Location of IvaloLocation

Historic Weather in Ivalo — Graph

°F

Ivalo temperature yesterday

Maximum temperature yesterday: 50 °F (at 4:50 PM)
Minimum temperature yesterday: 36 °F (at 12:20 AM)
Average temperature yesterday: 42 °F

Past Weeks' High & Low Weather Summary

 TemperatureHumidityPressure
High57 °F (May 22, 2:50 PM)100% (May 12, 4:50 PM)30.01 "Hg (May 12, 4:50 PM)
Low30 °F (May 26, 1:50 AM)27% (May 22, 2:50 PM)29.15 "Hg (May 23, 9:20 PM)
Average41 °F77%29.68 "Hg
* Reported May 11 6:20 PM — May 26 6:50 PM, Ivalo, Weather by CustomWeather, © 2015

Note: Actual official high and low records may vary slightly from our data, if they occured in-between our weather recording intervals... More about our weather records

Advertising

Ivalo weather history for previous 24 hours

 ConditionsComfort  
Time TempWeatherWind HumidityBarometerVisibility
6:50 PM
Tue, May 26
54 °FPassing clouds.10 mph44%29.86 "HgN/A
6:20 PM54 °FPassing clouds.12 mph44%29.86 "HgN/A
5:50 PM54 °FPassing clouds.10 mph44%29.86 "HgN/A
5:20 PM54 °FPassing clouds.12 mph44%29.86 "HgN/A
4:50 PM54 °FPassing clouds.12 mph44%29.86 "HgN/A
4:20 PM54 °FPassing clouds.13 mph44%29.86 "HgN/A
3:50 PM54 °FPassing clouds.10 mph44%29.86 "HgN/A
3:20 PM52 °FPassing clouds.10 mph47%29.89 "HgN/A
2:50 PM52 °FPassing clouds.8 mph47%29.89 "HgN/A
2:20 PM52 °FPassing clouds.9 mph44%29.89 "HgN/A
1:50 PM50 °FPassing clouds.6 mph47%29.89 "HgN/A
1:20 PM50 °FPassing clouds.6 mph47%29.89 "HgN/A
12:50 PM48 °FSunny.5 mph50%29.89 "Hg10 mi
12:20 PM48 °FPassing clouds.5 mph50%29.89 "HgN/A
11:50 AM48 °FSunny.5 mph46%29.89 "Hg10 mi
11:20 AM46 °FPassing clouds.6 mph53%29.92 "HgN/A
10:50 AM45 °FPassing clouds.6 mph53%29.92 "HgN/A
10:20 AM45 °FSunny.3 mph53%29.92 "Hg10 mi
9:50 AM45 °FSunny.2 mph53%29.92 "Hg10 mi
9:20 AM43 °FPassing clouds.7 mph53%29.92 "HgN/A
8:50 AM41 °FPassing clouds.5 mph61%29.92 "HgN/A
8:20 AM41 °FScattered clouds.5 mph57%29.92 "HgN/A
7:50 AM39 °FSunny.3 mph61%29.92 "Hg10 mi
7:20 AM39 °FPassing clouds.5 mph65%29.92 "HgN/A
6:50 AM39 °FPassing clouds.5 mph65%29.92 "HgN/A
6:20 AM37 °FSunny.3 mph70%29.92 "Hg10 mi
5:50 AM34 °FSunny.No wind81%29.92 "Hg10 mi
5:20 AM32 °FSunny.No wind93%29.92 "Hg10 mi
4:50 AM32 °FSunny.1 mph87%29.92 "Hg10 mi
4:20 AM30 °FSunny.1 mph93%29.92 "Hg10 mi
3:50 AM30 °FSunny.1 mph93%29.92 "Hg10 mi
3:20 AM30 °FSunny.No wind93%29.92 "Hg10 mi
2:50 AM30 °FSunny.No wind93%29.89 "Hg10 mi
2:20 AM32 °FSunny.No wind93%29.89 "Hg10 mi
1:50 AM30 °FSunny.No wind93%29.89 "Hg10 mi
1:20 AM34 °FSunny.No wind81%29.89 "Hg10 mi
12:50 AM36 °FSunny.No wind81%29.89 "Hg10 mi
12:20 AM37 °FSunny.2 mph70%29.89 "Hg10 mi
11:50 PM
Mon, May 25
39 °FSunny.5 mph65%29.86 "Hg10 mi
11:20 PM41 °FSunny.6 mph61%29.86 "Hg10 mi
10:50 PM43 °FPartly sunny.7 mph57%29.86 "HgN/A
10:20 PM43 °FPartly sunny.7 mph57%29.86 "HgN/A
9:50 PM43 °FOvercast.7 mph61%29.86 "HgN/A
9:20 PM45 °FOvercast.8 mph57%29.86 "HgN/A
8:50 PM45 °FOvercast.8 mph57%29.83 "HgN/A
8:20 PM46 °FOvercast.8 mph53%29.83 "HgN/A
Weather by CustomWeather, © 2015

See weather overviewHow to use our weather pages